PROGRESS-MS 03

Last updated on Wed Feb 01 2017 00:15:05 GMT+0000 (Greenwich Mean Time)

1 41670U 16045A 17030.26215193 .00006336 00000-0 10252-3 0 9995 2 41670 51.6438 5.8891 0007738 134.4357 4.8625 15.54214946 40303
UTC large
Height (km)
Speed (km/s)
/
Latitude / Longitude
Inclination (degrees)
Orbital Period (minutes)
Azimuth
Elevation
Range (km)
Doppler Factor

Next 0 passes for location: London (51.5072 / 0.1276)

Sorry there are no passes over London.